• In Hungary
  • List of Countries
  • For 7 days
  • Water Temperature
  • Satellite Maps
  • Weather Map
  • News
  • Weather Widgets
  • user-avatar
    Login

    Hourly Weather Dyukarevo

    Today, 25 September, Tuesday

    Time Temperature Precipitation Wind Pressure Humidity
    00:00 +6°C° 0 mm 7 mps 733 mmHg 85%
    01:00 +6°C° 0 mm 7 mps 733 mmHg 85%
    02:00 +7°C° 0 mm 5 mps 733 mmHg 86%
    03:00 +7°C° 0 mm 5 mps 734 mmHg 85%
    04:00 +7°C° 0 mm 6 mps 734 mmHg 85%
    05:00 +7°C° 0 mm 6 mps 735 mmHg 84%
    06:00 +7°C° 0 mm 6 mps 735 mmHg 84%
    07:00 +7°C° 0 mm 6 mps 735 mmHg 83%
    08:00 +7°C° 0 mm 6 mps 736 mmHg 82%
    09:00 +7°C° 0.1 mm 6 mps 737 mmHg 79%
    10:00 +8°C° 0.1 mm 6 mps 737 mmHg 75%
    11:00 +8°C° 0.1 mm 6 mps 738 mmHg 72%
    12:00 +8°C° 0 mm 6 mps 738 mmHg 72%
    13:00 +8°C° 0 mm 6 mps 739 mmHg 71%
    14:00 +8°C° 0 mm 6 mps 740 mmHg 71%
    15:00 +7°C° 0 mm 6 mps 740 mmHg 72%
    16:00 +7°C° 0 mm 5 mps 741 mmHg 72%
    17:00 +6°C° 0 mm 5 mps 741 mmHg 73%
    18:00 +6°C° 0 mm 5 mps 742 mmHg 74%
    19:00 +6°C° 0 mm 4 mps 742 mmHg 74%
    20:00 +6°C° 0 mm 4 mps 743 mmHg 74%
    21:00 +6°C° 0 mm 4 mps 743 mmHg 76%
    22:00 +5°C° 0 mm 4 mps 744 mmHg 78%
    23:00 +5°C° 0 mm 4 mps 744 mmHg 80%

    Tomorrow, 26 September, Wednesday

    Time Temperature Precipitation Wind Pressure Humidity
    00:00 +5°C° 0 mm 4 mps 745 mmHg 83%
    01:00 +4°C° 0 mm 4 mps 745 mmHg 86%
    02:00 +3°C° 0 mm 4 mps 746 mmHg 89%
    03:00 +3°C° 0 mm 3 mps 746 mmHg 91%
    04:00 +2°C° 0 mm 3 mps 747 mmHg 93%
    05:00 +2°C° 0 mm 3 mps 747 mmHg 94%
    06:00 +3°C° 0 mm 3 mps 748 mmHg 90%
    07:00 +3°C° 0 mm 4 mps 748 mmHg 85%
    08:00 +4°C° 0 mm 4 mps 749 mmHg 80%
    09:00 +6°C° 0 mm 4 mps 749 mmHg 72%
    10:00 +7°C° 0 mm 4 mps 750 mmHg 64%
    11:00 +8°C° 0 mm 4 mps 750 mmHg 56%
    12:00 +10°C° 0 mm 4 mps 750 mmHg 52%
    13:00 +10°C° 0 mm 4 mps 750 mmHg 49%
    14:00 +11°C° 0 mm 4 mps 750 mmHg 46%
    15:00 +10°C° 0 mm 3 mps 750 mmHg 51%
    16:00 +9°C° 0 mm 3 mps 750 mmHg 57%
    17:00 +8°C° 0 mm 3 mps 749 mmHg 62%
    18:00 +7°C° 0 mm 3 mps 749 mmHg 66%
    19:00 +7°C° 0 mm 3 mps 749 mmHg 71%
    20:00 +5°C° 0 mm 4 mps 749 mmHg 75%
    21:00 +5°C° 0 mm 4 mps 749 mmHg 73%
    22:00 +5°C° 0 mm 5 mps 748 mmHg 72%
    23:00 +5°C° 0 mm 5 mps 748 mmHg 70%

    Day after tomorrow, 27 September, Thursday

    Time Temperature Precipitation Wind Pressure Humidity
    00:00 +5°C° 0 mm 6 mps 747 mmHg 68%
    01:00 +5°C° 0 mm 6 mps 747 mmHg 66%
    02:00 +5°C° 0 mm 7 mps 746 mmHg 64%
    03:00 +5°C° 0.1 mm 8 mps 745 mmHg 65%
    04:00 +5°C° 0.1 mm 8 mps 744 mmHg 67%
    05:00 +5°C° 0.1 mm 9 mps 743 mmHg 68%
    06:00 +5°C° 0.3 mm 9 mps 742 mmHg 71%
    07:00 +5°C° 0.3 mm 9 mps 742 mmHg 75%
    08:00 +5°C° 0.3 mm 10 mps 741 mmHg 79%
    09:00 +5°C° 0.2 mm 10 mps 741 mmHg 80%
    10:00 +6°C° 0.2 mm 9 mps 740 mmHg 82%
    11:00 +6°C° 0.2 mm 9 mps 740 mmHg 84%
    12:00 +6°C° 0.2 mm 9 mps 740 mmHg 85%
    13:00 +7°C° 0.2 mm 9 mps 740 mmHg 86%
    14:00 +7°C° 0.2 mm 8 mps 740 mmHg 87%
    15:00 +7°C° 0.2 mm 8 mps 740 mmHg 88%
    16:00 +9°C° 0.2 mm 7 mps 740 mmHg 89%
    17:00 +9°C° 0.2 mm 7 mps 740 mmHg 90%
    18:00 +9°C° 0.2 mm 6 mps 740 mmHg 91%
    19:00 +9°C° 0.2 mm 5 mps 741 mmHg 92%
    20:00 +10°C° 0.2 mm 4 mps 741 mmHg 93%
    21:00 +8°C° 0 mm 4 mps 741 mmHg 94%
    22:00 +8°C° 0 mm 4 mps 742 mmHg 94%
    23:00 +8°C° 0 mm 3 mps 742 mmHg 94%

    28 September, Friday

    Time Temperature Precipitation Wind Pressure Humidity
    00:00 +8°C° 0 mm 3 mps 742 mmHg 94%
    01:00 +7°C° 0 mm 3 mps 742 mmHg 93%
    02:00 +7°C° 0 mm 3 mps 743 mmHg 93%
    03:00 +7°C° 0 mm 3 mps 742 mmHg 93%
    04:00 +5°C° 0 mm 3 mps 742 mmHg 93%
    05:00 +5°C° 0 mm 3 mps 742 mmHg 93%
    06:00 +7°C° 0 mm 4 mps 742 mmHg 91%
    07:00 +8°C° 0 mm 4 mps 742 mmHg 89%
    08:00 +9°C° 0 mm 5 mps 742 mmHg 87%
    09:00 +10°C° 0 mm 6 mps 741 mmHg 86%
    10:00 +11°C° 0 mm 7 mps 741 mmHg 85%
    11:00 +12°C° 0 mm 8 mps 740 mmHg 84%
    12:00 +13°C° 0 mm 8 mps 740 mmHg 81%
    13:00 +15°C° 0 mm 8 mps 740 mmHg 78%
    14:00 +15°C° 0 mm 8 mps 739 mmHg 75%
    15:00 +15°C° 0 mm 7 mps 739 mmHg 75%
    16:00 +15°C° 0 mm 7 mps 738 mmHg 76%
    17:00 +15°C° 0 mm 6 mps 738 mmHg 76%
    18:00 +15°C° 0.3 mm 6 mps 738 mmHg 79%
    19:00 +15°C° 0.3 mm 7 mps 738 mmHg 81%
    20:00 +15°C° 0.3 mm 7 mps 738 mmHg 84%
    21:00 +14°C° 0.1 mm 6 mps 739 mmHg 84%
    22:00 +13°C° 0.1 mm 5 mps 739 mmHg 84%
    23:00 +12°C° 0.1 mm 4 mps 740 mmHg 85%

    29 September, Saturday

    Time Temperature Precipitation Wind Pressure Humidity
    00:00 +11°C° 0 mm 4 mps 740 mmHg 86%
    01:00 +8°C° 0 mm 4 mps 741 mmHg 87%
    02:00 +8°C° 0 mm 3 mps 741 mmHg 88%
    03:00 +6°C° 0 mm 4 mps 742 mmHg 87%
    04:00 +6°C° 0 mm 4 mps 742 mmHg 86%
    05:00 +5°C° 0 mm 4 mps 743 mmHg 85%
    06:00 +5°C° 0 mm 4 mps 743 mmHg 82%
    07:00 +5°C° 0 mm 4 mps 744 mmHg 79%
    08:00 +5°C° 0 mm 4 mps 744 mmHg 75%
    09:00 +6°C° 0 mm 4 mps 744 mmHg 70%
    10:00 +7°C° 0 mm 4 mps 745 mmHg 64%
    11:00 +8°C° 0 mm 4 mps 745 mmHg 59%
    12:00 +10°C° 0 mm 4 mps 745 mmHg 56%
    13:00 +10°C° 0 mm 4 mps 745 mmHg 54%
    14:00 +10°C° 0 mm 4 mps 745 mmHg 52%
    15:00 +10°C° 0 mm 4 mps 746 mmHg 53%
    16:00 +9°C° 0 mm 3 mps 746 mmHg 55%
    17:00 +8°C° 0 mm 3 mps 746 mmHg 57%
    18:00 +7°C° 0 mm 3 mps 747 mmHg 58%
    19:00 +7°C° 0 mm 3 mps 747 mmHg 60%
    20:00 +5°C° 0 mm 3 mps 748 mmHg 62%
    21:00 +4°C° 0 mm 3 mps 748 mmHg 63%
    22:00 +4°C° 0 mm 3 mps 748 mmHg 65%
    23:00 +3°C° 0 mm 3 mps 748 mmHg 66%

    30 September, Sunday

    Time Temperature Precipitation Wind Pressure Humidity
    00:00 +4°C° 0 mm 2 mps 749 mmHg 67%
    01:00 +3°C° 0 mm 2 mps 749 mmHg 68%
    02:00 +3°C° 0 mm 2 mps 749 mmHg 69%
    03:00 +3°C° 0 mm 2 mps 749 mmHg 69%
    04:00 +2°C° 0 mm 2 mps 749 mmHg 70%
    05:00 +2°C° 0 mm 2 mps 750 mmHg 70%
    06:00 +3°C° 0 mm 2 mps 750 mmHg 66%
    07:00 +5°C° 0 mm 2 mps 750 mmHg 62%
    08:00 +6°C° 0 mm 2 mps 750 mmHg 58%
    09:00 +7°C° 0 mm 2 mps 750 mmHg 53%
    10:00 +9°C° 0 mm 2 mps 750 mmHg 47%
    11:00 +12°C° 0 mm 2 mps 750 mmHg 42%
    12:00 +12°C° 0 mm 2 mps 750 mmHg 40%
    13:00 +13°C° 0 mm 1 mps 749 mmHg 38%
    14:00 +13°C° 0 mm 1 mps 749 mmHg 36%
    15:00 +12°C° 0 mm 1 mps 749 mmHg 41%
    16:00 +11°C° 0 mm 1 mps 748 mmHg 46%
    17:00 +10°C° 0 mm 1 mps 748 mmHg 51%
    18:00 +9°C° 0 mm 1 mps 748 mmHg 53%
    19:00 +8°C° 0 mm 1 mps 748 mmHg 54%
    20:00 +7°C° 0 mm 1 mps 748 mmHg 56%
    21:00 +7°C° 0 mm 1 mps 748 mmHg 58%
    22:00 +6°C° 0 mm 1 mps 748 mmHg 59%
    23:00 +6°C° 0 mm 1 mps 747 mmHg 61%
    Show more